Weather in Haradzišča

Belarus     53°19′39″N   26°00′28″E
temp.,
°C
wind,
m/s
gust,
m/s
humid.,
%
clouds,
%
prec.,
mm/h
press.,
hPa
HPBL,
m
15 may, sat
sat1500:00+11s22918 0.0 100413
03:00+10sw229418 0.0 100419
06:00+9sw229612 0.0 100433
09:00+13wsw339066 0.2 1005392
12:00+17wnw347147 0.8 10061126
15:00+17w667326 4.1 10061128
18:00+16w67815 1.3 1007758
21:00+11w49935 1.6 1009231
16 may, sun
sun1600:00+9w23925 0.0 101033
03:00+8sw22926 0.0 101028
06:00+8ssw229468 0.0 101039
09:00+13ssw238367 0.0 1011302
12:00+17sse4565100 0.0 10101242
15:00+18se4658100 0.0 10091514
18:00+19se476881 0.1 10081334
21:00+14ese41085100 1.3 1007202
17 may, mon
mon1700:00+13s51391100 0.6 1006352
03:00+13sse499697 1.0 1006295
06:00+12sse4898100 0.1 1006324
09:00+12sw369595 1.6 1007344
12:00+15ssw3379100 0.1 1007866
15:00+17nw3367100 0.1 10071164
18:00+17n3364100 0.0 10051319
21:00+12nne3386100 0.1 100541
18 may, tue
tue1800:00+10nnw228942 0.0 100421
03:00+9nne129220 0.0 100310
06:00+9nnw1192100 0.0 100210
09:00+13wnw3479100 0.0 1001366
12:00+15w5676100 0.0 1002998
15:00+14w7875100 0.2 1002833
18:00+15w6976100 0.0 10021157
21:00+11w61285100 0.1 1003473
19 may, wed
wed1900:00+9w5119538 0.0 1005392
03:00+7w51392100 0.0 1006412
06:00+7w5129151 0.0 1007402
09:00+10w697598 0.0 1008673
12:00+13w687375 0.3 10081261
15:00+14wnw71069100 1.4 10081564
18:00+13wnw710745 0.4 10091206
21:00+9w49855 0.6 1010271